Powrót do katalogu

CZ-4B R/B

AktywnySSO
NORAD 37181·ROCKET BODY·🇨🇳 China

Wystrzelony Oct 6, 2010 z Taiyuan Satellite Launch Center

Loading…

Następne Przeloty (najbliższe 24 godziny)

TLE

ŚwieżeSource: Space-Track

Epoka: Sep 14, 2026, 09:08 UTC

1 37181U 10051C   26257.38076109  .00003457  00000-0  15745-3 0  9997
2 37181  97.7747 305.0738 0072027 162.0197 198.3609 15.19088635872181

Śledź CZ-4B R/B w czasie rzeczywistym z AllMySat

Download on the App Store